Regional Weather Roundup
Issued by NWS Charleston, SC

Current Version | Previous Version | Graphics & Text | Print | Product List | Glossary On
Versions: 1 2 3 4 5 6 7 8 9 10 11 12 13 14 15 16 17 18 19 20 21 22 23 24 25 26 27 28 29 30 31 32 33 34 35 36 37 38 39 40 41 42 43 44 45 46 47 48 49 50
000
ASUS42 KCHS 231212
RWRCHS

REGIONAL WEATHER ROUNDUP
NATIONAL WEATHER SERVICE CHARLESTON SC
800 AM EDT SUN APR 23 2017

NOTE: "FAIR" INDICATES FEW OR NO CLOUDS BELOW 12,000 FEET WITH NO
SIGNIFICANT WEATHER AND/OR OBSTRUCTIONS TO VISIBILITY.

NOT ALL STATIONS ARE QUALITY CONTROLLED. USE DATA WITH CAUTION...
ESPECIALLY DEWPOINT OBSERVATIONS.

SCZ027-030-031-034>040-042>050-231300-
...SOUTHEAST SOUTH CAROLINA...

CITY           SKY/WX    TMP DP  RH WIND       PRES   REMARKS
N CHARLESTON   MOSUNNY   73  68  84 S9        29.87R
6HR MIN TEMP:  70; 6HR MAX TEMP:  73;

WATERFRONT PRK   N/A     72  71  97 S7        29.86R
JOHNS ISLAND   CLOUDY    73  70  88 SW7G14    29.88S
PINOPOLIS        N/A     72  70  94 S5        29.78R
MONCKS CORNER  FAIR      70  68  94 S5        29.87R
SUMMERVILLE    PTSUNNY   70  68  94 S3        29.88R
BEAUFORT MCAS  SUNNY     74  71  91 S7        29.86S
6HR MIN TEMP:  71; 6HR MAX TEMP:  74;

BEAUFORT ARPT  FAIR      72  68  88 S9        29.86S FOG
HILTON HEAD IS CLOUDY    73  72  94 S12G18    29.86S
WALTERBORO     SUNNY     68  66  94 SE3       29.88R
ALLENDALE      FAIR      68  66  94 S3        29.86R FOG

...SOUTHERN MIDLANDS AND PEE DEE...

CITY           SKY/WX    TMP DP  RH WIND       PRES   REMARKS
GEORGETOWN     FAIR      70  70 100 CALM      29.90R
KINGSTREE      CLOUDY    68  64  88 NE3       29.89R
ORANGEBURG     CLOUDY    66  64  93 CALM      29.88R
6HR MIN TEMP:  63; 6HR MAX TEMP:  67;

BARNWELL       FAIR      68  66  94 CALM      29.87R
AIKEN          FAIR      63  59  88 NE9       29.91R
MANNING        CLOUDY    70  64  83 NE16G23   29.89R
COLUMBIA       CLOUDY    65  58  78 NE8       29.88R
6HR MIN TEMP:  65; 6HR MAX TEMP:  73;

SUMTER         CLOUDY    65  60  85 NE12      29.88R
6HR MIN TEMP:  64; 6HR MAX TEMP:  70;

FLORENCE       CLOUDY    62  60  93 NE10      29.92R
6HR MIN TEMP:  62; 6HR MAX TEMP:  71;

MYRTLE BEACH   LGT RAIN  72  68  88 NW5       29.89S
N MYRTLE BEACH LGT RAIN  67  65  93 N7        29.91R
6HR MIN TEMP:  67; 6HR MAX TEMP:  71; 6HR PCP: TRACE;


$$

GAZ063-065-086>088-099>101-113>116-118-119-134>141-150-231300-
...SOUTHEAST GEORGIA...

CITY           SKY/WX    TMP DP  RH WIND       PRES   REMARKS
SAVANNAH ARPT  MOSUNNY   70  66  87 S7        29.87R
6HR MIN TEMP:  68; 6HR MAX TEMP:  71;

HUNTER AAF     SUNNY     72  72 100 S6        29.84R
6HR MIN TEMP:  70; 6HR MAX TEMP:  72;

FORT STEWART   SUNNY     67  65  94 S3        29.85R
6HR MIN TEMP:  65; 6HR MAX TEMP:  67;

STATESBORO     SUNNY     67  67 100 CALM      29.87R
SYLVANIA       SUNNY     70  66  88 CALM      29.87R
CLAXTON        FAIR     N/A N/A N/A CALM      29.87R

...CSRA...CENTRAL AND FAR SOUTHEAST GEORGIA...

CITY           SKY/WX    TMP DP  RH WIND       PRES   REMARKS
THOMSON        PTSUNNY   64  59  82 SE8       29.91R
AUGUSTA-BUSH   MOSUNNY   68  61  78 N3        29.85R
6HR MIN TEMP:  64; 6HR MAX TEMP:  71;

AUGUSTA-DANIEL MOSUNNY   67  58  72 NE8       29.87R
SWAINSBORO     FAIR      64  64 100 CALM      29.88R
VIDALIA        MOSUNNY   66  63  88 CALM      29.87R
EASTMAN        FAIR      64  62  94 CALM      29.88S
HAZLEHURST     FAIR      66  65  95 SW3       29.86R
ALMA           SUNNY     64  63  96 CALM      29.87R
6HR MIN TEMP:  62; 6HR MAX TEMP:  65;

WAYCROSS       MOSUNNY   68  68 100 SW3       29.88R
JESUP          PTSUNNY   64  61  88 CALM      29.88R
BAXLEY         PTSUNNY   66  66 100 CALM      29.87R
BRUNSWICK      MOSUNNY   70  68  94 CALM      29.88S
SAINT SIMONS   MOSUNNY   71  66  84 W6        29.87R
6HR MIN TEMP:  69; 6HR MAX TEMP:  74;


$$

SCZ027-028-034-036>038-045-046-048>050-GAZ119-141-231300-
...LAKE AND SUPPLEMENTAL COASTAL OBSERVATIONS...

STATION/POSITION TIME  TEMP    WIND        PRES    WAVE   SWELL
                       AIR SEA DIR/SP/G            HT/PER HT/PER/DIR
                 (UTC) (F)     (DEG/KT/KT) (MB)    (FT/S) (FT/S/D)
WINYAH BAY       NOT AVBL
LAKE MURRAY      1120   62      30/  4/  9 1011.9R
ACE BASIN NERRS  1045   72        CALM     1011.0
FORT PULASKI     1148   73 74  210/  7/ 11 1011.6R
SAPELO ISLAND    1100   71     210/  6     1011.0

$$

ANZ835-935-AMZ111-154-330-350-352-354-370-450-454-472-231300-
...C-MAN AND BUOY OBSERVATIONS...

STATION/POSITION TIME  TEMP    WIND        PRES    WAVE   SWELL
                       AIR SEA DIR/SP/G            HT/PER HT/PER/DIR
                 (UTC) (F)     (DEG/KT/KT) (MB)    (FT/S) (FT/S/D)
BUOY 41004       1150   75 74  200/ 12/ 16 1012.0R   4/ 5   2/110/12
BUOY 41008       1050   72 71  200/ 10/ 12 1010.8    3/ 5   2/150/ 5
FOLLY BEACH CMAN 1100   72     200/  9/ 12 1012.1R
CAPERS NEARSHORE 1108   72 72  220/  8/ 10 1011.4R
FRIPP NEARSHORE  1108   72 71  220/ 12/ 16 1011.1R


STATION/POSITION TIME  TEMP    WIND        PRES    WAVE   SWELL
                       AIR SEA DIR/SP/G            HT/PER HT/PER/DIR
                 (UTC) (F)     (DEG/KT/KT) (MB)    (FT/S) (FT/S/D)
5E ST. MARYS GA  1130      72                N/A     3/ 5   2/ 90/13
FRYING PAN BUOY  1150   74 73  190/ 10/ 12 1012.8R   4/ 6   3/170/ 6
BUOY 41025       1150   63 75   10/ 19/ 21 1014.2R   5/12   2/ 70/12
CAPE LOOKOUT NC  1100   62      30/ 13/ 15 1014.0R
BUOY 41002       1150   72 74  210/ 10/ 12 1015.4R   5/12   3/ 40/12
BUOY 41010       1150   75 78  160/ 10/ 12 1012.6R   5/14   5/ 70/14
ST AUGUSTINE FL  1200   72 74  180/  4/  5 1012.9R


$$




USA.gov is the U.S. government's official web portal to all federal, state and local government web resources and services.